When you browse on this site, cookies collect data to enhance your experience and personalize the content and advertising you see.
Visit our Privacy Policy to learn more. By continuing to use the site, you agree to this use of cookies and data.
  • In Austria
  • List of Countries
  • For 7 days
  • Water Temperature
  • Satellite Maps
  • Weather Map
  • News
  • Weather Widgets
  • user-avatar
    Login

    Hourly Weather Ureche

    Today, 21 July, Sunday

    Time Temperature Precipitation Wind Pressure Humidity
    00:00 +16°C° 0.2 mm 0 mps 751 mmHg 83%
    01:00 +18°C° 0.2 mm 1 mps 751 mmHg 84%
    02:00 +16°C° 0.2 mm 1 mps 751 mmHg 85%
    03:00 +16°C° 0 mm 1 mps 751 mmHg 85%
    04:00 +15°C° 0 mm 0 mps 751 mmHg 86%
    05:00 +15°C° 0 mm 0 mps 751 mmHg 86%
    06:00 +19°C° 0 mm 1 mps 751 mmHg 83%
    07:00 +21°C° 0 mm 1 mps 751 mmHg 80%
    08:00 +22°C° 0 mm 1 mps 751 mmHg 77%
    09:00 +24°C° 0 mm 1 mps 751 mmHg 72%
    10:00 +25°C° 0 mm 1 mps 751 mmHg 67%
    11:00 +26°C° 0 mm 1 mps 751 mmHg 61%
    12:00 +27°C° 0 mm 1 mps 751 mmHg 58%
    13:00 +28°C° 0 mm 1 mps 751 mmHg 54%
    14:00 +28°C° 0 mm 1 mps 750 mmHg 51%
    15:00 +28°C° 0 mm 1 mps 750 mmHg 52%
    16:00 +28°C° 0 mm 1 mps 750 mmHg 54%
    17:00 +28°C° 0 mm 1 mps 750 mmHg 55%
    18:00 +26°C° 0 mm 1 mps 750 mmHg 60%
    19:00 +25°C° 0 mm 1 mps 749 mmHg 66%
    20:00 +23°C° 0 mm 1 mps 749 mmHg 71%
    21:00 +22°C° 0.4 mm 1 mps 749 mmHg 75%
    22:00 +22°C° 0.4 mm 1 mps 749 mmHg 79%
    23:00 +21°C° 0.4 mm 1 mps 749 mmHg 83%

    Tomorrow, 22 July, Monday

    Time Temperature Precipitation Wind Pressure Humidity
    00:00 +20°C° 0.8 mm 1 mps 749 mmHg 86%
    01:00 +18°C° 0.8 mm 0 mps 749 mmHg 89%
    02:00 +17°C° 0.8 mm 0 mps 749 mmHg 92%
    03:00 +19°C° 1 mm 1 mps 749 mmHg 93%
    04:00 +19°C° 1 mm 1 mps 748 mmHg 95%
    05:00 +18°C° 1 mm 2 mps 748 mmHg 96%
    06:00 +19°C° 0.2 mm 2 mps 749 mmHg 96%
    07:00 +19°C° 0.2 mm 3 mps 749 mmHg 95%
    08:00 +20°C° 0.2 mm 3 mps 749 mmHg 94%
    09:00 +20°C° 0 mm 4 mps 749 mmHg 92%
    10:00 +20°C° 0 mm 4 mps 749 mmHg 90%
    11:00 +20°C° 0 mm 5 mps 750 mmHg 87%
    12:00 +21°C° 0 mm 5 mps 750 mmHg 83%
    13:00 +21°C° 0 mm 5 mps 749 mmHg 78%
    14:00 +22°C° 0 mm 5 mps 749 mmHg 74%
    15:00 +22°C° 0.1 mm 5 mps 749 mmHg 74%
    16:00 +22°C° 0.1 mm 5 mps 749 mmHg 73%
    17:00 +22°C° 0.1 mm 5 mps 749 mmHg 73%
    18:00 +21°C° 0 mm 5 mps 749 mmHg 77%
    19:00 +20°C° 0 mm 4 mps 749 mmHg 82%
    20:00 +19°C° 0 mm 4 mps 749 mmHg 86%
    21:00 +18°C° 0 mm 4 mps 749 mmHg 89%
    22:00 +17°C° 0 mm 4 mps 750 mmHg 91%
    23:00 +15°C° 0 mm 4 mps 750 mmHg 93%

    Day after tomorrow, 23 July, Tuesday

    Time Temperature Precipitation Wind Pressure Humidity
    00:00 +15°C° 0 mm 4 mps 750 mmHg 94%
    01:00 +14°C° 0 mm 4 mps 750 mmHg 95%
    02:00 +13°C° 0 mm 4 mps 750 mmHg 95%
    03:00 +13°C° 0 mm 4 mps 750 mmHg 94%
    04:00 +14°C° 0 mm 4 mps 750 mmHg 92%
    05:00 +14°C° 0 mm 4 mps 750 mmHg 90%
    06:00 +14°C° 0 mm 4 mps 750 mmHg 90%
    07:00 +15°C° 0 mm 4 mps 750 mmHg 89%
    08:00 +15°C° 0 mm 4 mps 749 mmHg 88%
    09:00 +17°C° 0 mm 4 mps 750 mmHg 86%
    10:00 +18°C° 0 mm 4 mps 750 mmHg 83%
    11:00 +18°C° 0 mm 4 mps 750 mmHg 80%
    12:00 +19°C° 0.1 mm 4 mps 750 mmHg 78%
    13:00 +20°C° 0.1 mm 4 mps 749 mmHg 76%
    14:00 +21°C° 0.1 mm 4 mps 749 mmHg 74%
    15:00 +21°C° 0.2 mm 4 mps 749 mmHg 77%
    16:00 +20°C° 0.2 mm 3 mps 749 mmHg 79%
    17:00 +20°C° 0.2 mm 3 mps 749 mmHg 82%
    18:00 +19°C° 0.1 mm 2 mps 749 mmHg 86%
    19:00 +19°C° 0.1 mm 2 mps 748 mmHg 90%
    20:00 +18°C° 0.1 mm 2 mps 748 mmHg 93%
    21:00 +17°C° 0 mm 2 mps 749 mmHg 94%
    22:00 +17°C° 0 mm 2 mps 749 mmHg 95%
    23:00 +16°C° 0 mm 2 mps 749 mmHg 96%

    24 July, Wednesday

    Time Temperature Precipitation Wind Pressure Humidity
    00:00 +16°C° 0 mm 2 mps 749 mmHg 95%
    01:00 +16°C° 0 mm 2 mps 749 mmHg 95%
    02:00 +15°C° 0 mm 2 mps 749 mmHg 95%
    03:00 +15°C° 0 mm 2 mps 749 mmHg 95%
    04:00 +15°C° 0 mm 2 mps 749 mmHg 96%
    05:00 +15°C° 0 mm 2 mps 749 mmHg 96%
    06:00 +16°C° 0 mm 3 mps 750 mmHg 92%
    07:00 +18°C° 0 mm 3 mps 750 mmHg 88%
    08:00 +19°C° 0 mm 3 mps 750 mmHg 85%
    09:00 +21°C° 0 mm 3 mps 750 mmHg 78%
    10:00 +24°C° 0 mm 3 mps 750 mmHg 71%
    11:00 +25°C° 0 mm 3 mps 750 mmHg 64%
    12:00 +26°C° 0 mm 4 mps 750 mmHg 62%
    13:00 +26°C° 0 mm 4 mps 750 mmHg 60%
    14:00 +27°C° 0 mm 4 mps 750 mmHg 58%
    15:00 +27°C° 0 mm 4 mps 750 mmHg 60%
    16:00 +26°C° 0 mm 4 mps 750 mmHg 62%
    17:00 +26°C° 0 mm 4 mps 750 mmHg 64%
    18:00 +25°C° 0 mm 3 mps 750 mmHg 70%
    19:00 +22°C° 0 mm 3 mps 750 mmHg 76%
    20:00 +20°C° 0 mm 2 mps 751 mmHg 82%
    21:00 +19°C° 0 mm 2 mps 751 mmHg 84%
    22:00 +18°C° 0 mm 2 mps 751 mmHg 86%
    23:00 +17°C° 0 mm 2 mps 751 mmHg 88%

    25 July, Thursday

    Time Temperature Precipitation Wind Pressure Humidity
    00:00 +17°C° 0 mm 2 mps 751 mmHg 89%
    01:00 +17°C° 0 mm 2 mps 751 mmHg 90%
    02:00 +16°C° 0 mm 2 mps 752 mmHg 91%
    03:00 +16°C° 0 mm 2 mps 752 mmHg 92%
    04:00 +16°C° 0 mm 2 mps 752 mmHg 92%
    05:00 +16°C° 0 mm 2 mps 752 mmHg 92%
    06:00 +17°C° 0 mm 2 mps 752 mmHg 87%
    07:00 +19°C° 0 mm 2 mps 752 mmHg 82%
    08:00 +21°C° 0 mm 2 mps 752 mmHg 77%
    09:00 +22°C° 0 mm 3 mps 752 mmHg 70%
    10:00 +25°C° 0 mm 3 mps 752 mmHg 64%
    11:00 +26°C° 0 mm 3 mps 752 mmHg 57%
    12:00 +27°C° 0 mm 3 mps 752 mmHg 56%
    13:00 +27°C° 0 mm 4 mps 752 mmHg 55%
    14:00 +27°C° 0 mm 4 mps 752 mmHg 54%
    15:00 +27°C° 0 mm 3 mps 752 mmHg 57%
    16:00 +27°C° 0 mm 3 mps 752 mmHg 59%
    17:00 +27°C° 0 mm 3 mps 752 mmHg 62%
    18:00 +25°C° 0 mm 3 mps 752 mmHg 68%
    19:00 +24°C° 0 mm 2 mps 752 mmHg 74%
    20:00 +21°C° 0 mm 2 mps 752 mmHg 80%
    21:00 +20°C° 0 mm 2 mps 752 mmHg 82%
    22:00 +19°C° 0 mm 2 mps 752 mmHg 84%
    23:00 +19°C° 0 mm 2 mps 752 mmHg 86%

    26 July, Friday

    Time Temperature Precipitation Wind Pressure Humidity
    00:00 +18°C° 0 mm 2 mps 752 mmHg 88%
    01:00 +18°C° 0 mm 2 mps 752 mmHg 90%
    02:00 +17°C° 0 mm 2 mps 752 mmHg 92%
    03:00 +17°C° 0 mm 2 mps 752 mmHg 93%
    04:00 +17°C° 0 mm 2 mps 752 mmHg 94%
    05:00 +17°C° 0 mm 2 mps 752 mmHg 95%
    06:00 +18°C° 0 mm 2 mps 752 mmHg 89%
    07:00 +20°C° 0 mm 2 mps 752 mmHg 83%
    08:00 +23°C° 0 mm 2 mps 752 mmHg 78%
    09:00 +24°C° 0 mm 2 mps 752 mmHg 70%
    10:00 +25°C° 0 mm 2 mps 752 mmHg 63%
    11:00 +27°C° 0 mm 2 mps 752 mmHg 55%
    12:00 +27°C° 0 mm 2 mps 751 mmHg 54%
    13:00 +28°C° 0 mm 2 mps 751 mmHg 53%
    14:00 +28°C° 0 mm 2 mps 751 mmHg 52%
    15:00 +28°C° 0 mm 2 mps 751 mmHg 55%
    16:00 +28°C° 0 mm 2 mps 750 mmHg 58%
    17:00 +28°C° 0 mm 2 mps 750 mmHg 60%
    18:00 +26°C° 0.1 mm 2 mps 750 mmHg 68%
    19:00 +24°C° 0.1 mm 2 mps 750 mmHg 75%
    20:00 +21°C° 0.1 mm 2 mps 750 mmHg 83%
    21:00 +21°C° 0 mm 2 mps 750 mmHg 86%
    22:00 +20°C° 0 mm 2 mps 751 mmHg 89%
    23:00 +19°C° 0 mm 2 mps 751 mmHg 92%
    Show more